User: anonymous   Login
Location: Griffin Ranch
(33.6186°N, 110.6622°W)
Time: 10:50:05
(UTC-07:00)
Language:

Cosmos 1812 - Orbit

View from above orbital plane
View from above orbital plane
View from above satellite
View from above satellite

Ground track
Ground track

The orbit data is extracted from the following two-line orbital elements,

1 17295U 87003A   15186.89836340  .00004012  00000-0  22997-3 0  9993
2 17295 082.5175 124.8091 0005353 078.4684 281.7147 15.12320992551210
Epoch (UTC): 05 July 2015 21:33:38
Eccentricity: 0.0005353
inclination: 82.5175°
perigee height: 525 km
apogee height: 533 km
right ascension of ascending node: 124.8091°
argument of perigee: 78.4684°
revolutions per day: 15.12320992
mean anomaly at epoch: 281.7147°
orbit number at epoch: 55121

The dashed part of the orbit path shows where the satellite is in the earth's shadow,  

DLR